Torna al catalogo

SL-8 R/B

AttivoLEO
NORAD 12115·ROCKET BODY·🇷🇺 Russia

Lanciato Dec 23, 1980 da Plesetsk Cosmodrome

Loading…

Prossimi Passaggi (prossime 24 ore)

TLE

AggiornatoSource: Space-Track

Epoca: Sep 14, 2026, 09:48 UTC

1 12115U 80102J   26257.40863112 -.00000100  00000-0 -53243-3 0  9991
2 12115  73.9881  56.9070 0019713 174.4711 210.9940 12.52313719 90447

Traccia SL-8 R/B in tempo reale con AllMySat

Download on the App Store